Find Starlink 1526

NORAD ID: 46029 Int'l Des: 2020-055 Owner: SPXS Country: US Constellation: starlink operational
LEOCIRCULARSTARLINK_TYPE

当前视图

正在加载3D地球...

About Starlink 1526

Starlink 1526 (NORAD 46029) is a starlink constellation satellite (v1.0) launched Aug 7, 2020 by SPXS of US. It operates in LEO, CIRCULAR, STARLINK_TYPE orbit with a mass of 260.00 kg.

关于 Starlink 1526

正在加载描述...

即将过境

Passes for default location (London). Set your location on the main map for personalized predictions.

高度历史

Loading altitude history...

两行轨道根数

1 46029U 20055C 26171.00002315 .00056644 00000-0 18244-2 0 9997
2 46029 53.1574 11.4545 0001201 88.4153 320.2596 15.31680444 5874
Epoch: Jun 20, 2026 • Age: 35 hours

当前状态

高度 477.7 km
速度 7.63 km/s
星下点 -24.20°S, 127.2°E
发射日期 Aug 7, 2020
运行时间 5.8 years
类型 internet

技术详情

分类 Payload
质量 260.00 kg
干质量 248.00 kg
总质量 260.00 kg
长度 0.20 m
直径 2.80 m
跨度 9.00 m
形状 Box + pan
制造商 SPXS
平台类型 Starlink
阶段状态 In Orbit
所有者/国家 SPXS/US

Most Searched